Sturgeon Bay, WI

7:35 PM CST on December 03, 2016 (GMT -0600)
Door County Cherryland

Weather History for KSUE - March, 2014

Change the Weather History Date:

Monday, March 24, 2014

  Actual Average Record
Temperature  
Mean Temperature 19 °F -  
Max Temperature 30 °F 40 °F 71 °F (1910)
Min Temperature 8 °F 23 °F -6 °F (1974)
Degree Days  
Heating Degree Days 46    
Moisture  
Dew Point 7 °F    
Average Humidity 60    
Maximum Humidity 86    
Minimum Humidity 40    
Precipitation  
Precipitation 0.00 in - - ()
Sea Level Pressure  
Sea Level Pressure 30.16 in    
Wind  
Wind Speed 8 mph (WSW)    
Max Wind Speed 17 mph    
Max Gust Speed 22 mph    
Visibility 10 miles    
Events      
Averages and records for this station are not official NWS values.
T = Trace of Precipitation, MM = Missing Value Source: NWS Daily Summary

Daily Weather History Graph

Daily Weather History Graph

Search for Another Location

Airport or City:

Trip Planner

Search our weather history database for the weather conditions in past years. The results will help you decide how hot, cold, wet, or windy it might be!

Date:

Astronomy

Mar. 24, 2014 Rise Set
Actual Time 6:45 AM CDT 7:07 PM CDT
Civil Twilight 6:16 AM CDT 7:36 PM CDT
Nautical Twilight 5:41 AM CDT 8:11 PM CDT
Astronomical Twilight 5:06 AM CDT 8:46 PM CDT
Moon 2:29 AM CDT (3/24) 12:18 PM CDT (3/24)
Length of Visible Light 13h 20m
Length of Day
12h 21m
Last Quarter, 43% of the Moon is Illuminated
Mar 24
Last Quarter
Mar 30
New
Apr 7
First Quarter
Apr 15
Full
Apr 22
Last Quarter

Hourly Weather History & Observations

Time (CDT) Temp. Windchill Dew Point Humidity Pressure Visibility Wind Dir Wind Speed Gust Speed Precip Events Conditions
12:15 AM 15.8 °F 6.1 °F 1.4 °F 53% 30.31 in 10.0 mi West 6.9 mph - N/A   Clear
12:35 AM 15.8 °F 7.2 °F 1.4 °F 53% 30.31 in 10.0 mi West 5.8 mph - N/A   Clear
12:55 AM 15.8 °F 6.1 °F 3.2 °F 58% 30.31 in 10.0 mi WNW 6.9 mph - N/A   Clear
1:15 AM 14.0 °F 5.1 °F 1.4 °F 57% 30.31 in 10.0 mi WNW 5.8 mph - N/A   Clear
1:35 AM 14.0 °F 6.5 °F 3.2 °F 62% 30.31 in 10.0 mi West 4.6 mph - N/A   Clear
1:55 AM 12.2 °F 6.1 °F 1.4 °F 62% 30.31 in 10.0 mi West 3.5 mph - N/A   Clear
2:15 AM 12.2 °F 4.3 °F 1.4 °F 62% 30.32 in 10.0 mi West 4.6 mph - N/A   Clear
2:35 AM 12.2 °F - 1.4 °F 62% 30.31 in 10.0 mi Calm Calm - N/A   Clear
2:55 AM 12.2 °F 2.9 °F 1.4 °F 62% 30.31 in 10.0 mi West 5.8 mph - N/A   Clear
3:15 AM 10.4 °F 2.2 °F 1.4 °F 67% 30.30 in 10.0 mi West 4.6 mph - N/A   Clear
3:35 AM 10.4 °F 2.2 °F 1.4 °F 67% 30.30 in 10.0 mi West 4.6 mph - N/A   Clear
3:55 AM 10.4 °F 4.0 °F 1.4 °F 67% 30.30 in 10.0 mi West 3.5 mph - N/A   Clear
4:15 AM 10.4 °F 2.2 °F 1.4 °F 67% 30.29 in 10.0 mi WSW 4.6 mph - N/A   Clear
4:35 AM 10.4 °F - 1.4 °F 67% 30.29 in 10.0 mi Calm Calm - N/A   Clear
4:55 AM 8.6 °F 2.0 °F -0.4 °F 67% 30.28 in 10.0 mi SW 3.5 mph - N/A   Clear
5:15 AM 8.6 °F 0.1 °F -0.4 °F 67% 30.27 in 10.0 mi WSW 4.6 mph - N/A   Clear
5:35 AM 8.6 °F 0.1 °F -0.4 °F 67% 30.27 in 10.0 mi WSW 4.6 mph - N/A   Clear
5:55 AM 8.6 °F -1.3 °F 1.4 °F 73% 30.27 in 10.0 mi WSW 5.8 mph - N/A   Clear
6:15 AM 8.6 °F -1.3 °F -0.4 °F 67% 30.27 in 10.0 mi West 5.8 mph - N/A   Clear
6:35 AM 8.6 °F -1.3 °F -0.4 °F 67% 30.27 in 10.0 mi WSW 5.8 mph - N/A   Clear
6:55 AM 8.6 °F -1.3 °F -0.4 °F 67% 30.27 in 10.0 mi WSW 5.8 mph - N/A   Clear
7:15 AM 8.6 °F -1.3 °F -0.4 °F 67% 30.27 in 10.0 mi WSW 5.8 mph - N/A   Clear
7:35 AM 8.6 °F -1.3 °F 1.4 °F 73% 30.27 in 10.0 mi SW 5.8 mph - N/A   Clear
7:55 AM 10.4 °F -0.4 °F 1.4 °F 67% 30.26 in 10.0 mi WSW 6.9 mph - N/A   Clear
8:15 AM 10.4 °F -0.4 °F 1.4 °F 67% 30.26 in 10.0 mi WSW 6.9 mph - N/A   Clear
8:35 AM 12.2 °F 1.7 °F 3.2 °F 67% 30.25 in 10.0 mi WSW 6.9 mph - N/A   Clear
8:55 AM 14.0 °F 3.9 °F 3.2 °F 62% 30.25 in 10.0 mi WSW 6.9 mph - N/A   Clear
9:15 AM 15.8 °F 5.1 °F 5.0 °F 62% 30.25 in 10.0 mi WSW 8.1 mph - N/A   Clear
9:35 AM 17.6 °F 6.4 °F 5.0 °F 58% 30.25 in 10.0 mi WSW 9.2 mph - N/A   Clear
9:55 AM 17.6 °F 5.7 °F 5.0 °F 58% 30.24 in 10.0 mi West 10.4 mph - N/A   Clear
10:15 AM 19.4 °F 7.9 °F 5.0 °F 54% 30.23 in 10.0 mi West 10.4 mph - N/A   Mostly Cloudy
10:35 AM 19.4 °F 6.0 °F 5.0 °F 54% 30.22 in 10.0 mi West 13.8 mph - N/A   Mostly Cloudy
10:55 AM 19.4 °F 7.2 °F 6.8 °F 58% 30.22 in 10.0 mi West 11.5 mph - N/A   Partly Cloudy
11:15 AM 21.2 °F 8.9 °F 6.8 °F 54% 30.20 in 10.0 mi WSW 12.7 mph 17.3 mph N/A   Clear
11:35 AM 21.2 °F 8.9 °F 6.8 °F 54% 30.20 in 10.0 mi West 12.7 mph 19.6 mph N/A   Clear
11:55 AM 23.0 °F 10.6 °F 8.6 °F 54% 30.19 in 10.0 mi WSW 13.8 mph 19.6 mph N/A   Clear
12:15 PM 23.0 °F 10.1 °F 6.8 °F 50% 30.18 in 10.0 mi WSW 15.0 mph 19.6 mph N/A   Scattered Clouds
12:35 PM 23.0 °F 11.7 °F 6.8 °F 50% 30.18 in 10.0 mi WSW 11.5 mph 17.3 mph N/A   Mostly Cloudy
12:55 PM 24.8 °F 11.9 °F 6.8 °F 46% 30.17 in 10.0 mi WSW 16.1 mph 20.7 mph N/A   Scattered Clouds
1:15 PM 24.8 °F 13.4 °F 6.8 °F 46% 30.16 in 10.0 mi West 12.7 mph 19.6 mph N/A   Scattered Clouds
1:35 PM 24.8 °F 12.4 °F 6.8 °F 46% 30.14 in 10.0 mi WSW 15.0 mph 19.6 mph N/A   Partly Cloudy
1:55 PM 24.8 °F 13.4 °F 6.8 °F 46% 30.13 in 10.0 mi WSW 12.7 mph 18.4 mph N/A   Clear
2:15 PM 26.6 °F 16.8 °F 6.8 °F 43% 30.12 in 10.0 mi WSW 10.4 mph - N/A   Clear
2:35 PM 26.6 °F 14.3 °F 5.0 °F 40% 30.11 in 10.0 mi WSW 16.1 mph 19.6 mph N/A   Clear
2:55 PM 26.6 °F 15.2 °F 6.8 °F 43% 30.10 in 10.0 mi WSW 13.8 mph - N/A   Clear
3:15 PM 26.6 °F 15.2 °F 6.8 °F 43% 30.09 in 10.0 mi West 13.8 mph - N/A   Clear
3:35 PM 28.4 °F 18.0 °F 8.6 °F 43% 30.08 in 10.0 mi West 12.7 mph 19.6 mph N/A   Clear
3:55 PM 28.4 °F 18.0 °F 8.6 °F 43% 30.07 in 10.0 mi West 12.7 mph - N/A   Clear
4:15 PM 30.2 °F 19.3 °F 8.6 °F 40% 30.06 in 10.0 mi West 15.0 mph 18.4 mph N/A   Clear
4:35 PM 28.4 °F 18.0 °F 10.4 °F 47% 30.05 in 10.0 mi West 12.7 mph 21.9 mph N/A   Clear
4:55 PM 28.4 °F 17.5 °F 10.4 °F 47% 30.04 in 10.0 mi West 13.8 mph - N/A   Clear
5:15 PM 28.4 °F 16.6 °F 10.4 °F 47% 30.04 in 10.0 mi WSW 16.1 mph 20.7 mph N/A   Clear
5:35 PM 28.4 °F 16.2 °F 10.4 °F 47% 30.03 in 10.0 mi West 17.3 mph - N/A   Clear
5:55 PM 28.4 °F 17.0 °F 10.4 °F 47% 30.03 in 10.0 mi WSW 15.0 mph 21.9 mph N/A   Clear
6:15 PM 28.4 °F 17.5 °F 10.4 °F 47% 30.02 in 10.0 mi West 13.8 mph 18.4 mph N/A   Scattered Clouds
6:35 PM 26.6 °F 15.7 °F 10.4 °F 51% 30.02 in 10.0 mi West 12.7 mph - N/A   Mostly Cloudy
6:55 PM 26.6 °F 16.8 °F 10.4 °F 51% 30.01 in 10.0 mi WSW 10.4 mph - N/A   Mostly Cloudy
7:15 PM 26.6 °F 15.7 °F 12.2 °F 55% 30.01 in 10.0 mi WSW 12.7 mph - N/A   Overcast
7:35 PM 26.6 °F 15.7 °F 14.0 °F 59% 30.00 in 10.0 mi WSW 12.7 mph - N/A   Overcast
7:55 PM 26.6 °F 16.8 °F 14.0 °F 59% 30.00 in 10.0 mi WSW 10.4 mph - N/A   Overcast
8:15 PM 26.6 °F 18.2 °F 14.0 °F 59% 30.00 in 10.0 mi WSW 8.1 mph - N/A   Mostly Cloudy
8:35 PM 24.8 °F 17.9 °F 15.8 °F 69% 29.99 in 10.0 mi WSW 5.8 mph - N/A   Overcast
8:55 PM 24.8 °F 17.9 °F 15.8 °F 69% 29.99 in 10.0 mi SW 5.8 mph - N/A   Overcast
9:15 PM 24.8 °F 16.9 °F 15.8 °F 69% 29.98 in 10.0 mi SW 6.9 mph - N/A   Overcast
9:35 PM 24.8 °F 17.9 °F 17.6 °F 74% 29.98 in 10.0 mi SW 5.8 mph - N/A   Overcast
9:55 PM 24.8 °F 19.1 °F 17.6 °F 74% 29.97 in 10.0 mi WSW 4.6 mph - N/A   Overcast
10:15 PM 24.8 °F 16.1 °F 19.4 °F 80% 29.97 in 10.0 mi WSW 8.1 mph - N/A   Overcast
10:35 PM 24.8 °F 16.9 °F 19.4 °F 80% 29.97 in 10.0 mi West 6.9 mph - N/A   Overcast
10:55 PM 24.8 °F 16.9 °F 19.4 °F 80% 29.97 in 7.0 mi West 6.9 mph - N/A   Overcast
11:15 PM 24.8 °F 16.9 °F 19.4 °F 80% 29.96 in 9.0 mi West 6.9 mph - N/A   Overcast
11:35 PM 23.0 °F 15.8 °F 19.4 °F 86% 29.96 in 10.0 mi West 5.8 mph - N/A   Overcast
11:55 PM 23.0 °F 17.0 °F 17.6 °F 80% 29.95 in 10.0 mi West 4.6 mph - N/A   Overcast